Theta_e
314 315 313 310 310 309 311 315 317 326 336 335 336 338 339 341 337 332 330 332 335 336 336 336 335 336 336 335 333 332 331 332 333 334 335 336 335 335 335 334 331 329 328 329 328 330 334 334 333 333 332 332 332 332 332 329 324 322 327 328 323 324 330 331 329 327 329 332 332 331 332 332 333 333 332 331 330 330 328 327 327 326 326 324 322
313 315 316 312 310 309 310 310 310 323 333 329 328 332 336 340 336 332 331 328 330 332 333 335 334 333 334 334 333 332 332 331 330 332 333 334 335 334 334 334 332 330 328 325 324 328 333 334 333 333 332 332 332 332 332 332 329 326 328 329 326 327 330 329 327 325 327 331 332 332 332 332 332 332 332 332 331 330 329 328 328 327 327 325 323
314 314 316 316 312 309 312 313 309 319 330 328 326 332 335 338 337 334 332 330 328 328 330 332 332 332 333 334 334 332 333 333 331 332 333 331 330 332 334 333 332 332 331 328 325 327 330 332 333 333 333 332 332 332 331 331 331 329 328 328 327 328 329 328 324 321 325 331 331 332 332 332 332 331 331 332 331 330 329 329 329 328 327 326 325
315 315 316 316 314 311 312 316 318 323 330 330 332 335 334 335 337 337 334 332 330 328 327 328 329 330 332 336 337 334 333 335 335 334 334 332 330 331 332 331 331 333 334 331 327 325 326 329 331 333 333 332 332 332 332 332 331 330 330 329 327 327 329 328 323 317 324 332 331 332 332 332 332 332 332 331 329 329 329 329 329 329 328 327 326
316 316 316 316 316 314 309 310 317 326 331 331 333 336 333 332 336 338 335 331 329 328 327 327 327 329 333 337 338 337 336 337 337 337 336 334 332 330 329 328 329 331 333 333 330 325 322 323 328 332 332 331 332 332 332 333 332 331 331 330 328 328 327 325 320 315 324 332 331 331 332 331 332 332 333 332 330 329 329 330 329 329 329 328 327
316 316 316 316 316 313 309 307 310 323 333 332 331 334 335 334 334 337 337 333 329 328 328 328 327 327 334 338 338 337 336 336 337 338 336 334 332 330 330 329 327 328 332 334 334 330 324 322 325 330 332 330 331 332 332 332 332 332 331 331 329 329 327 321 316 313 323 330 330 331 331 330 333 332 333 333 331 330 329 330 330 329 329 328 327
315 315 316 316 315 311 310 310 307 315 328 332 331 332 335 335 334 336 337 335 332 329 329 329 328 327 332 336 336 334 333 334 336 336 335 334 333 332 330 329 327 329 332 334 334 333 329 325 325 329 332 332 332 333 333 332 332 332 332 332 331 330 328 321 315 313 323 329 329 331 328 326 333 333 331 332 333 331 329 330 331 330 330 329 329
314 315 316 316 316 313 310 310 308 308 316 326 333 333 332 334 334 335 337 335 331 329 329 330 329 328 328 332 334 334 333 334 334 334 334 334 334 333 332 330 329 330 332 334 334 333 332 328 326 330 333 333 333 333 333 333 331 331 332 332 331 331 328 322 318 315 319 325 327 330 327 324 330 331 330 332 332 332 331 330 330 330 330 329 329
315 315 316 316 316 315 312 310 310 308 307 316 329 334 332 332 333 334 335 334 331 329 329 329 329 327 325 327 330 334 336 336 334 334 335 336 336 335 334 334 331 330 333 335 335 334 333 331 328 330 334 334 334 334 333 333 332 331 331 331 331 331 327 323 325 320 317 322 324 325 325 325 330 330 331 332 332 332 332 330 330 330 330 329 329
315 315 315 316 316 316 314 314 313 310 308 309 317 327 332 332 332 334 335 335 333 329 326 328 329 328 326 326 329 334 336 335 333 334 336 338 337 334 333 335 335 333 333 335 336 335 333 332 330 329 332 334 334 334 334 333 333 331 331 331 329 330 327 324 327 323 319 324 325 323 323 326 331 332 331 332 332 332 332 331 331 331 331 330 328
314 315 315 315 316 315 314 314 313 310 310 310 309 316 328 333 332 333 335 336 335 331 324 325 329 330 328 327 329 333 334 333 332 333 336 338 337 334 332 334 336 336 336 337 336 334 334 334 332 329 330 333 333 334 335 333 333 332 331 331 329 330 329 327 327 325 322 326 327 325 326 328 331 333 332 332 332 333 333 332 332 332 332 332 329
315 315 316 316 316 315 312 311 311 310 310 311 310 310 318 329 332 332 333 335 336 334 328 324 325 328 329 327 327 328 329 328 328 330 334 336 335 332 330 332 336 338 339 338 335 335 335 335 334 332 329 332 334 333 334 334 333 332 331 331 330 329 329 327 326 325 325 327 328 328 329 330 332 333 333 333 333 333 334 333 332 332 332 332 330
315 315 316 316 316 316 313 311 310 310 310 310 312 310 311 320 329 332 332 332 334 335 333 329 326 325 326 326 325 324 326 327 326 327 329 330 329 327 328 331 336 338 338 337 335 337 337 335 336 334 328 330 334 333 333 334 332 331 331 331 331 329 328 327 326 325 326 328 329 329 331 332 333 333 333 334 334 334 334 333 333 333 332 332 330
316 316 316 316 316 316 315 313 311 310 311 310 310 311 311 313 321 330 332 331 332 335 336 334 332 330 327 324 322 322 324 327 329 327 323 326 327 325 328 331 332 335 336 336 337 338 338 337 336 335 329 328 333 334 334 334 333 332 332 332 331 330 329 329 328 328 329 329 329 330 332 332 333 333 333 334 335 334 334 334 333 333 333 332 330
316 316 316 316 316 316 315 315 313 310 310 310 310 311 311 311 313 322 330 332 331 333 336 336 335 332 328 324 322 321 322 323 327 328 326 328 329 325 329 332 329 331 333 335 338 338 338 338 336 336 332 328 332 335 335 335 334 334 333 333 332 331 331 330 329 329 330 330 329 330 332 332 332 332 332 333 335 335 334 334 334 334 334 333 332
315 315 316 316 316 316 315 315 314 312 310 310 310 310 311 311 311 314 322 329 331 331 333 336 335 331 327 326 323 322 323 323 325 329 330 332 332 327 329 330 327 329 331 331 335 337 337 338 337 336 333 329 331 336 337 336 336 335 333 333 333 332 332 332 331 330 329 329 329 329 330 331 332 331 331 332 334 335 335 334 334 334 334 333 333
314 315 315 315 316 316 315 314 314 314 312 310 310 311 310 311 311 311 313 321 328 330 331 333 335 333 330 330 329 328 329 329 330 331 332 334 334 332 331 328 327 328 329 329 333 336 338 340 339 338 335 332 333 337 337 337 337 336 334 333 333 333 333 332 332 331 329 328 328 329 330 331 331 329 329 330 332 334 334 335 335 335 333 332 332
313 314 314 315 315 316 315 314 313 313 312 311 310 311 311 310 311 311 311 313 321 328 329 329 331 333 334 334 333 333 333 333 333 331 331 333 334 335 332 328 326 327 329 332 336 339 340 341 341 340 338 336 336 338 338 338 337 337 336 335 335 335 335 333 332 332 330 327 327 329 330 331 331 329 327 327 329 331 333 335 335 333 332 332 332
312 313 313 314 315 315 315 314 312 311 312 312 311 310 311 311 311 311 311 311 314 323 327 326 327 330 332 334 335 335 334 335 333 332 333 333 332 334 333 328 326 327 330 334 337 339 339 338 338 340 340 339 338 337 338 338 338 338 337 337 337 337 336 335 334 332 331 328 325 328 330 330 330 328 326 326 327 329 331 334 334 333 332 333 333
312 313 313 314 315 315 316 315 313 312 313 313 313 312 310 311 311 311 311 311 311 316 323 325 323 325 326 330 333 335 335 335 332 332 335 332 331 333 332 331 330 330 332 333 334 336 334 331 331 334 337 339 337 337 337 337 338 338 338 338 338 338 337 337 336 333 331 329 326 326 329 329 328 327 326 326 327 327 328 331 333 334 334 334 334
313 313 313 313 314 316 316 317 316 315 315 316 316 314 312 312 313 312 312 315 315 314 316 319 322 324 323 324 329 332 334 335 332 334 335 333 332 333 333 333 334 334 332 330 331 334 332 329 328 329 332 334 334 335 336 337 337 338 339 338 338 338 338 338 336 334 333 332 329 328 328 328 327 327 328 328 328 328 328 328 332 334 334 334 334
314 314 314 314 314 316 317 317 317 317 317 317 317 316 315 313 313 313 314 319 323 323 321 320 320 325 325 323 326 329 333 335 335 335 335 333 333 333 333 334 335 332 329 329 332 333 329 327 326 326 325 328 328 330 334 337 338 338 339 339 338 338 338 338 336 334 333 333 332 331 330 330 329 327 329 330 331 331 331 331 333 334 334 335 335
313 313 314 314 314 315 316 316 317 317 318 318 318 317 317 315 313 314 315 317 322 326 327 324 322 324 327 328 328 329 332 335 336 335 335 334 333 332 331 333 333 330 328 331 332 331 327 325 325 324 324 326 328 328 330 333 337 339 339 339 339 338 338 337 336 334 333 333 332 331 330 330 330 330 331 332 332 333 334 335 336 335 335 335 335
312 312 313 314 314 314 315 315 316 316 317 319 319 318 318 316 315 316 315 313 316 321 325 325 323 322 325 328 331 331 333 336 336 336 337 336 335 333 332 331 330 328 330 333 331 327 325 324 324 324 324 325 327 329 329 330 334 338 339 339 339 339 338 338 336 334 333 333 332 331 329 329 329 332 333 333 332 332 333 335 336 336 336 335 335
311 311 312 313 313 314 314 315 316 316 317 317 319 319 319 319 318 316 314 312 312 317 322 325 323 321 323 327 330 332 333 336 337 338 339 338 336 335 334 333 331 329 331 334 330 325 324 324 324 324 325 325 326 328 331 331 332 336 338 339 339 339 338 338 336 334 333 333 333 332 331 329 328 331 333 333 333 332 332 334 334 334 335 336 335
310 310 311 311 312 313 313 315 316 316 316 316 317 319 320 321 320 318 317 315 312 314 319 322 321 319 322 326 329 331 332 334 337 338 339 339 337 334 335 336 333 331 334 335 330 325 323 324 324 324 325 326 326 328 332 334 332 334 337 339 339 339 338 338 337 335 333 332 332 331 331 331 329 331 333 333 334 333 333 334 333 332 333 335 335
310 310 310 310 311 311 313 314 315 316 316 317 317 318 319 321 321 320 320 319 314 313 316 319 318 316 317 322 326 331 332 333 336 336 337 338 337 332 330 333 334 334 337 336 331 326 323 323 324 324 324 326 328 329 333 335 334 335 337 339 339 338 338 338 338 337 335 333 331 330 331 331 331 331 333 333 333 333 333 334 333 332 332 333 334
310 311 310 310 310 310 311 313 313 315 315 316 318 318 320 321 322 322 323 322 318 314 315 319 321 317 315 317 321 327 331 334 335 335 335 336 337 333 327 329 333 338 339 337 331 325 323 323 324 324 323 325 329 331 334 336 335 335 336 338 339 339 338 338 338 337 336 335 333 330 329 330 331 333 333 333 333 333 333 334 333 333 333 333 334
310 310 310 309 309 309 311 312 312 313 314 316 318 319 320 322 322 322 324 323 321 317 315 320 324 321 316 315 318 325 331 333 334 335 335 335 337 337 333 328 327 331 336 337 332 326 324 324 324 323 323 323 326 331 334 333 332 334 336 337 338 339 338 337 337 337 337 337 335 333 330 329 329 331 332 333 332 332 332 333 333 333 333 333 334
309 309 309 309 309 309 310 311 312 313 314 315 317 318 320 321 322 323 324 324 323 321 317 320 324 324 322 321 322 325 330 333 333 335 336 335 335 338 337 331 325 323 328 334 333 329 327 326 324 323 323 323 324 329 332 329 328 333 336 337 338 339 338 337 337 337 338 337 337 336 334 331 327 326 327 329 330 331 332 332 332 332 332 333 334
308 308 308 308 309 309 310 311 312 313 314 315 318 318 319 320 321 322 324 323 323 323 320 320 323 326 327 329 328 327 330 333 334 335 335 334 334 337 337 336 333 332 332 334 334 330 327 327 327 323 322 323 325 329 331 330 330 334 337 338 339 338 338 339 338 338 338 338 337 337 336 334 329 325 323 323 324 327 331 332 332 332 332 332 333
308 308 308 308 309 309 310 310 312 314 315 316 318 318 319 319 320 321 323 322 322 323 322 320 323 326 328 330 330 329 330 333 334 335 335 334 334 336 337 337 337 338 336 334 332 329 325 328 329 326 321 323 324 327 330 332 333 336 338 338 338 338 339 339 338 337 337 338 338 337 337 336 334 329 325 322 320 322 327 331 332 332 332 332 332
308 308 308 308 308 309 309 310 312 314 316 317 318 319 319 320 320 321 322 322 322 322 322 323 325 327 328 330 331 331 331 333 334 335 334 334 334 334 335 336 336 337 335 333 332 329 326 328 332 329 323 322 324 325 328 332 334 336 338 338 338 338 338 338 338 338 338 337 336 336 337 337 336 333 330 327 323 320 322 327 331 332 332 332 332
308 308 308 308 308 308 309 310 312 314 316 316 316 318 318 319 320 321 322 322 323 323 323 324 327 328 328 330 332 333 333 333 334 334 334 333 333 333 333 334 334 334 333 332 331 328 327 331 335 334 329 323 323 324 327 331 333 335 337 336 336 337 337 337 338 339 338 336 334 334 334 334 334 334 332 330 327 324 321 323 327 331 331 332 333
308 308 308 307 308 308 309 309 310 312 314 314 314 316 317 318 319 320 320 320 321 324 325 325 326 328 329 330 332 333 334 334 333 333 334 333 333 333 332 331 331 331 330 330 329 328 330 332 334 336 335 332 326 324 328 331 332 333 333 332 333 335 336 336 338 339 338 335 332 332 332 331 332 332 331 330 327 326 324 321 324 328 330 332 333
307 307 306 306 306 307 308 308 309 311 313 313 313 314 316 317 318 319 318 317 316 320 324 325 326 328 329 330 332 333 334 334 334 334 335 334 332 332 331 331 331 329 328 329 329 329 331 333 334 335 336 336 333 327 329 332 331 331 331 329 330 333 335 336 337 338 337 335 334 334 333 332 332 332 331 330 328 328 327 325 324 327 328 331 333
306 306 306 305 305 306 306 308 309 311 312 313 312 313 314 315 315 316 317 317 315 316 320 323 325 327 328 329 331 333 333 333 333 334 334 334 333 333 333 332 331 330 329 328 328 329 330 331 333 334 335 337 336 330 327 330 330 330 330 330 330 331 333 335 335 336 337 337 336 334 332 332 333 332 332 331 330 330 330 329 329 329 330 331 333
307 306 306 306 305 305 305 306 307 310 311 311 311 311 312 312 313 313 314 315 315 315 317 319 321 324 326 326 329 330 331 331 332 332 332 333 334 334 334 333 332 331 330 328 326 328 328 329 330 332 335 337 335 329 325 327 328 328 329 329 330 331 331 332 333 335 336 337 334 331 329 330 331 331 331 332 331 332 332 332 332 333 334 334 334
308 307 306 306 306 306 305 305 305 307 309 309 310 310 310 310 311 311 312 313 314 315 316 317 317 319 322 323 325 327 327 328 329 329 328 329 332 333 334 334 335 335 334 332 329 327 329 330 331 332 334 334 333 330 326 326 327 328 330 329 329 330 330 330 331 334 336 337 334 329 327 328 328 329 332 332 332 332 332 332 333 334 335 336 336
308 307 307 306 306 305 305 306 305 305 306 308 309 309 309 309 309 310 311 312 313 314 315 316 316 317 318 320 322 324 326 327 328 326 322 321 323 328 330 331 334 336 336 336 334 332 331 331 331 333 334 334 334 334 329 325 326 328 329 329 329 328 328 329 329 332 335 336 334 329 326 327 328 329 332 333 333 333 333 333 333 334 335 336 337
308 307 307 306 306 305 305 305 305 305 305 307 308 308 309 310 310 310 311 312 313 313 314 315 315 316 317 317 319 321 323 326 328 328 326 322 322 326 327 327 330 333 333 335 335 334 332 331 331 334 336 335 335 336 333 327 325 326 327 328 328 327 327 328 329 330 331 333 333 330 326 326 328 329 330 332 333 333 333 333 334 334 334 336 337
307 307 306 305 306 306 305 304 304 304 304 306 307 308 309 310 310 311 311 312 313 314 314 314 315 315 316 317 318 318 319 321 324 327 329 328 327 328 328 326 327 329 331 333 334 334 334 334 334 335 336 334 335 336 334 329 325 325 325 326 327 326 325 327 329 331 332 334 334 333 330 326 326 327 328 329 331 332 333 334 333 333 334 336 337
307 307 306 305 305 305 304 303 303 304 304 305 306 308 309 310 310 312 312 312 314 314 313 313 314 315 315 316 317 318 318 319 319 321 324 327 329 330 330 329 329 329 331 332 333 332 333 334 334 334 333 333 334 335 334 331 326 326 326 326 326 326 325 326 328 331 334 334 334 335 335 331 326 326 327 328 330 331 333 333 333 333 335 336 337
306 306 305 305 305 304 303 302 303 303 303 304 305 306 308 310 311 312 312 313 313 313 313 313 313 314 315 315 316 317 318 318 318 318 319 321 325 328 331 332 332 332 333 333 333 332 332 333 334 334 333 333 334 334 333 331 327 327 327 326 327 327 327 327 329 331 334 335 335 335 335 334 330 328 328 329 330 331 332 333 333 333 335 337 338
306 305 305 304 304 303 303 302 302 302 303 304 304 304 307 310 312 312 313 313 313 313 313 313 313 314 315 315 316 316 317 317 317 317 317 317 319 322 326 330 332 332 333 333 333 333 333 334 334 334 333 333 334 334 333 331 328 327 327 326 327 327 328 329 330 331 333 334 334 334 334 334 334 332 332 332 332 331 331 333 334 334 335 337 337
305 304 304 303 303 303 303 302 300 300 301 303 304 304 305 308 311 313 313 313 313 313 313 313 313 313 314 315 316 316 316 316 316 316 317 317 317 319 323 326 328 330 331 332 333 333 333 334 334 333 333 333 333 333 333 331 328 326 325 325 326 327 328 329 330 331 331 332 333 333 332 332 332 333 333 333 334 333 332 333 334 335 336 337 337
303 303 302 302 302 302 302 301 300 300 300 302 304 304 304 305 309 313 314 313 313 314 313 313 313 313 313 314 315 315 315 315 315 315 316 317 317 318 321 324 325 327 329 330 331 332 333 332 332 332 332 332 333 334 334 333 331 327 324 325 326 326 327 328 329 330 330 330 331 332 331 330 330 332 333 334 334 335 335 335 336 335 334 335 336
303 302 302 302 301 301 301 300 300 300 300 301 302 303 303 304 306 310 313 313 313 313 313 313 313 313 313 313 314 314 314 314 315 314 314 315 316 317 319 321 323 326 327 329 329 330 331 332 331 332 332 332 333 334 334 333 332 329 325 324 325 326 326 327 327 328 328 329 329 330 330 331 331 332 333 333 334 335 335 335 336 336 333 332 333
302 302 301 300 300 300 299 299 299 299 299 300 300 301 302 303 304 306 310 312 312 313 313 313 313 313 313 313 314 314 314 313 313 313 313 314 314 314 315 317 319 322 324 327 329 329 330 330 331 331 332 333 334 334 331 328 328 327 323 320 321 323 325 326 326 326 327 328 329 329 330 331 332 332 332 332 333 334 335 335 336 337 335 334 334
302 301 300 299 299 299 298 298 298 298 298 299 299 300 301 303 303 304 306 309 310 311 312 313 313 313 313 313 314 313 313 312 312 311 312 312 313 313 314 314 315 317 319 321 324 326 328 329 330 331 332 331 332 333 332 330 329 327 324 321 322 323 325 326 327 326 326 326 327 329 330 330 331 332 332 332 333 335 336 335 335 335 336 336 336
300 299 298 298 298 298 298 298 298 297 298 298 299 299 300 301 303 303 304 306 308 310 311 312 313 313 313 313 313 312 312 311 310 310 311 311 311 312 313 314 314 315 316 317 318 320 321 323 327 329 330 330 330 331 331 330 328 326 326 325 326 326 327 328 328 328 328 328 328 328 330 330 331 332 332 333 334 335 336 336 335 335 335 336 337
Wind_Speed
9 7 8 9 9 10 8 6 8 12 16 18 18 20 22 23 20 17 20 22 26 28 26 25 24 23 22 22 23 24 25 24 22 22 21 17 15 14 14 13 14 15 15 15 15 17 18 19 20 19 19 20 21 21 19 19 22 21 17 17 25 25 19 18 17 16 12 9 9 10 12 13 12 11 9 7 8 8 7 7 7 7 7 7 6
9 7 6 7 8 10 9 8 7 8 14 17 18 20 22 22 20 20 21 20 25 28 28 29 27 25 25 26 28 27 27 28 25 22 20 19 17 15 13 14 15 16 17 16 16 17 17 19 19 18 18 19 20 21 20 20 20 19 17 17 21 24 21 19 19 18 15 11 10 10 10 12 12 12 10 9 10 9 8 8 8 8 8 8 7
9 9 7 7 8 9 9 8 8 6 11 15 18 19 21 23 22 23 24 24 25 28 29 30 29 26 25 24 26 27 27 27 26 21 19 21 22 18 14 15 15 15 15 17 17 17 17 17 17 16 16 18 20 21 20 22 22 20 19 18 21 24 22 20 20 21 17 12 11 10 10 10 11 12 12 12 12 12 11 10 10 10 9 9 8
10 11 10 9 8 8 7 6 7 6 9 14 16 17 20 25 25 24 27 28 28 29 30 29 28 27 25 21 21 26 26 24 21 18 17 21 24 20 18 18 17 14 14 17 18 19 19 18 17 15 16 17 19 19 20 21 22 22 20 19 21 25 23 22 22 23 19 14 14 13 10 11 10 11 11 12 12 12 12 11 10 11 11 10 9
12 13 12 11 11 9 7 5 5 6 8 12 14 15 18 23 27 27 28 29 27 27 28 27 26 26 23 21 21 23 23 21 19 17 17 20 23 23 23 22 21 18 16 17 18 21 22 20 19 17 17 18 18 18 19 20 20 21 21 20 22 24 26 26 25 25 21 17 16 13 9 10 9 8 9 9 9 10 11 11 11 11 11 11 10
13 14 14 14 13 11 8 6 5 5 7 11 12 14 17 18 23 29 31 31 28 26 26 26 26 27 26 26 26 24 24 24 23 22 22 23 24 25 24 23 25 23 19 17 18 20 23 22 21 19 18 19 19 18 19 20 20 21 20 20 22 23 26 28 28 27 22 18 18 15 12 9 7 8 9 8 8 9 9 10 11 11 11 12 11
15 15 15 15 14 13 10 9 7 5 6 9 10 12 16 16 18 24 29 30 29 28 27 27 28 30 31 29 27 28 30 29 28 27 26 24 24 24 24 25 27 25 21 19 19 20 22 23 22 20 19 18 19 19 19 20 21 20 20 21 23 23 26 28 29 26 23 21 20 18 17 13 8 9 8 7 8 9 10 11 11 11 12 11 11
15 16 16 16 15 15 12 11 9 7 6 9 10 11 14 17 19 21 23 24 26 28 30 29 29 30 33 32 28 29 30 29 28 27 25 23 22 21 22 24 27 27 23 20 21 21 21 23 23 21 20 19 20 20 19 20 20 19 20 23 24 23 26 27 26 26 25 24 22 18 18 18 14 11 9 7 7 8 10 13 12 12 12 12 11
15 15 16 16 15 15 13 12 9 8 7 7 10 12 13 16 19 22 23 23 26 30 31 30 28 27 30 33 33 29 25 25 27 25 23 21 20 19 19 22 27 29 24 19 21 23 22 23 24 22 21 19 19 19 20 20 19 19 20 22 24 24 25 25 23 26 27 24 23 20 18 19 17 13 12 9 9 9 9 11 12 11 11 11 11
15 15 15 15 15 14 14 13 11 8 7 6 8 11 12 14 17 20 23 24 27 32 33 30 26 25 27 30 33 30 25 24 25 25 24 21 20 20 20 22 24 26 23 20 21 23 25 25 25 24 23 22 21 19 20 21 20 20 20 21 23 23 24 24 22 25 26 23 23 21 19 19 16 13 13 11 10 11 10 8 10 9 8 8 9
16 16 16 15 14 14 13 12 12 10 7 7 7 9 11 13 15 18 22 24 28 33 34 30 27 26 25 26 29 29 28 27 26 26 24 22 20 19 21 23 22 21 20 21 22 24 26 27 26 26 25 24 23 22 22 23 22 22 22 22 23 23 23 23 22 22 24 23 23 21 20 19 16 13 12 11 11 11 10 9 8 8 7 8 8
17 17 17 17 16 16 15 13 12 11 8 7 6 7 10 13 15 16 20 24 27 32 35 33 29 27 25 24 25 26 26 27 28 28 26 24 22 21 23 24 22 20 21 24 27 26 25 26 25 25 28 28 27 26 24 23 23 23 23 23 23 24 23 22 23 23 23 23 23 22 20 18 17 14 12 11 11 11 10 11 9 7 7 7 8
18 18 18 18 18 18 17 15 13 12 10 8 7 6 7 12 15 16 19 21 24 31 36 37 34 30 28 25 21 21 24 27 32 33 31 28 28 28 27 26 23 22 24 28 29 25 22 24 24 25 32 35 31 29 26 22 24 25 24 25 25 25 25 24 24 24 23 23 22 21 19 18 17 15 13 12 11 11 10 12 10 6 7 7 8
18 18 18 18 18 19 19 17 14 12 11 10 8 7 6 9 13 17 18 19 22 28 34 40 39 36 33 28 21 18 22 28 34 36 35 32 32 33 30 28 27 26 26 26 25 22 21 22 23 25 33 38 35 33 29 25 26 26 26 27 27 26 26 25 25 24 23 22 21 20 19 19 18 16 15 13 12 12 12 12 10 8 9 8 8
18 18 19 19 19 20 19 18 16 14 11 10 9 8 8 7 10 15 18 20 22 24 29 37 40 38 36 33 26 21 23 30 34 34 33 31 33 35 33 30 30 30 27 22 20 22 22 23 24 24 29 36 37 34 31 29 29 29 28 28 28 27 26 25 25 25 24 23 22 21 19 19 18 17 16 15 14 13 12 12 12 11 11 10 10
19 20 21 21 21 20 20 19 18 16 13 11 10 9 9 9 9 11 16 19 21 22 25 31 36 39 40 39 36 33 34 37 39 38 35 34 34 35 36 34 32 32 30 27 24 23 25 25 25 25 28 34 36 35 33 31 30 31 30 29 29 28 27 27 25 24 25 24 23 22 20 20 19 18 17 16 15 14 13 13 13 13 13 11 10
21 21 21 22 21 21 21 20 19 18 16 13 11 10 9 10 10 9 11 16 21 23 24 26 32 37 41 43 42 42 42 41 43 45 42 39 35 35 38 39 36 35 35 34 28 23 24 23 23 25 26 30 34 35 34 33 32 32 32 30 28 27 27 27 25 23 24 24 23 22 21 20 20 19 18 18 17 16 14 14 13 14 15 14 12
23 21 21 21 21 21 21 22 20 19 18 15 12 12 11 10 11 11 11 12 17 23 25 24 28 33 38 42 43 44 45 44 44 44 41 39 36 34 38 39 39 39 37 33 26 22 21 20 20 21 21 25 31 33 32 33 33 33 32 30 28 26 27 27 26 24 23 24 24 23 21 21 21 20 19 19 19 18 16 15 15 16 17 16 14
22 22 21 20 21 21 22 23 22 20 19 16 14 13 13 11 11 11 11 11 13 18 24 25 26 29 35 40 42 43 45 45 44 41 38 38 36 37 40 41 41 42 37 30 24 19 17 17 17 17 19 24 28 29 29 31 34 35 33 31 28 26 26 25 24 25 23 24 25 24 22 22 22 22 20 19 20 20 18 16 16 17 16 15 14
22 21 20 20 21 21 21 22 22 20 19 17 15 14 14 13 12 11 11 12 11 14 20 26 27 28 33 38 41 43 44 46 45 39 37 39 38 39 41 39 38 39 35 27 23 19 17 19 18 17 20 23 23 23 26 29 33 35 33 30 27 26 25 22 22 23 23 23 25 25 24 23 22 22 21 20 21 21 19 17 16 16 16 15 15
21 21 20 20 20 21 20 20 20 20 18 16 15 14 13 13 12 12 12 12 12 12 15 22 26 27 30 33 37 41 42 44 44 40 38 39 38 39 38 36 36 36 31 25 22 20 18 19 18 18 21 23 21 20 24 29 32 33 32 30 27 25 25 22 21 22 20 20 21 23 24 23 23 22 21 20 21 21 20 20 18 17 16 15 16
22 22 22 20 19 20 21 20 19 18 17 16 15 14 13 13 13 12 11 10 10 11 12 17 23 26 28 30 32 36 38 39 40 42 42 42 40 38 36 36 36 32 27 23 22 20 18 17 16 15 19 23 21 19 22 27 31 33 33 32 29 26 24 22 20 21 20 19 18 20 22 22 23 24 22 20 19 19 19 19 19 19 17 16 17
24 24 23 22 21 20 20 20 19 18 17 16 15 14 13 13 14 13 12 10 10 11 12 14 19 25 28 29 29 31 32 34 37 41 42 42 42 41 39 39 36 31 26 23 21 19 18 17 14 12 16 22 22 19 20 25 30 33 33 32 30 28 24 22 21 21 21 21 20 21 22 23 22 21 20 20 20 19 18 17 17 18 18 17 17
25 25 24 24 23 21 20 20 19 18 18 18 16 15 14 14 14 14 14 13 12 11 12 12 15 21 27 29 30 30 30 32 35 37 38 38 39 41 41 40 37 33 28 23 21 20 19 17 14 12 18 23 24 24 23 24 27 30 31 31 30 28 24 22 21 21 23 22 22 22 22 23 24 20 17 19 22 23 22 20 18 18 17 18 17
28 28 27 26 24 22 21 21 21 20 19 19 18 16 15 15 14 15 15 15 14 13 12 12 13 17 24 29 31 31 32 34 34 35 35 35 36 39 40 37 33 32 29 26 24 22 21 20 16 15 20 23 25 26 25 23 24 26 28 29 29 27 24 22 21 22 23 23 23 23 21 23 26 23 20 21 23 25 25 23 22 21 19 18 18
28 30 30 29 26 24 23 22 22 20 19 20 20 18 15 15 15 15 16 16 16 14 13 14 14 15 20 26 30 31 33 35 34 35 35 33 34 38 38 34 31 30 30 30 28 26 24 23 21 18 20 22 23 24 26 25 24 24 27 29 29 27 24 22 21 22 23 23 23 23 21 23 27 27 25 24 24 25 26 24 24 24 22 20 20
27 28 30 30 28 27 25 23 22 21 19 18 20 19 16 15 16 16 15 16 17 16 14 15 16 16 17 21 26 30 33 35 36 37 36 33 35 38 37 33 30 29 31 31 30 29 27 25 26 25 21 20 20 23 25 25 25 26 28 30 30 29 25 23 22 22 22 23 24 23 22 24 27 28 28 28 26 26 26 25 25 24 24 23 22
29 28 30 32 30 28 26 25 24 22 21 19 19 18 16 15 15 15 15 16 17 17 16 15 16 18 19 20 24 28 29 32 34 34 35 34 34 38 38 36 32 29 30 32 31 31 31 28 28 28 24 20 20 22 24 23 24 27 29 30 30 29 27 25 25 24 22 22 24 25 25 25 27 28 29 30 29 27 26 26 25 24 23 22 22
31 29 30 32 30 28 28 26 24 23 22 21 19 18 17 16 16 15 16 16 16 18 17 15 16 19 21 21 23 25 26 27 29 28 29 30 31 34 37 40 39 35 32 33 34 35 35 32 29 27 26 24 23 22 23 22 23 26 29 31 31 30 28 28 27 26 24 23 23 25 25 26 27 29 31 30 29 28 28 27 25 24 24 23 22
31 31 31 31 30 29 28 26 24 22 21 20 19 18 17 17 17 16 16 17 17 17 17 17 17 19 21 21 21 23 23 25 27 26 26 28 29 31 35 41 44 45 42 39 38 39 39 37 34 29 27 27 26 23 22 21 23 27 31 33 34 31 28 28 27 25 24 24 24 24 24 26 28 31 32 32 30 28 28 27 26 25 25 24 23
31 33 34 32 30 29 27 25 24 21 19 19 17 17 18 18 17 16 17 18 18 18 17 17 18 18 19 20 22 22 22 24 25 25 25 27 27 28 32 37 41 45 45 43 41 42 42 41 38 33 30 30 28 26 24 23 25 30 31 32 33 29 26 25 24 24 23 23 24 24 23 26 30 32 32 32 31 30 29 28 27 26 27 26 24
32 36 36 32 29 28 27 24 23 21 19 17 16 17 18 18 17 18 18 18 19 20 18 16 17 18 18 20 22 23 23 24 25 24 25 27 27 26 27 30 33 38 42 44 44 45 44 42 39 35 33 31 30 30 29 26 27 31 31 31 31 28 25 24 24 25 24 23 23 23 21 23 28 31 32 31 31 32 31 29 28 28 28 28 27
30 35 37 34 29 28 28 25 23 23 20 16 14 16 17 17 17 18 19 19 19 20 20 17 15 17 18 19 21 23 24 24 23 24 25 27 27 26 25 26 28 33 39 43 44 45 45 40 36 34 35 34 32 32 32 29 28 30 30 30 30 29 26 25 25 24 24 24 26 26 24 22 24 27 30 30 30 32 33 32 30 29 30 30 30
29 31 36 36 31 28 28 26 23 21 20 19 17 17 18 18 17 17 18 19 18 17 17 16 14 15 17 18 19 22 24 24 24 25 27 28 28 28 28 27 27 32 38 41 43 45 43 38 33 33 34 35 36 34 32 30 29 29 30 30 31 30 26 24 24 23 23 26 29 29 29 29 28 28 30 30 30 31 33 34 33 32 32 33 32
28 28 32 36 34 28 26 26 24 21 20 21 21 20 20 19 17 16 16 17 18 16 13 12 12 13 15 16 17 19 22 24 26 26 28 29 30 30 30 29 28 31 36 39 41 43 41 36 34 32 30 32 36 36 33 31 31 30 31 31 32 32 28 25 25 23 22 25 27 27 30 31 31 31 32 32 31 32 33 34 35 35 35 35 35
28 29 31 36 36 31 28 26 24 22 18 19 21 20 20 19 18 17 16 16 18 19 15 11 11 10 10 13 16 18 21 24 25 25 27 29 30 30 31 30 30 31 33 35 38 39 37 35 34 34 31 29 32 35 34 33 33 33 33 33 33 34 31 27 27 25 22 23 25 26 28 30 31 32 33 33 32 32 32 33 35 36 36 36 37
28 31 31 34 36 36 36 32 27 23 19 19 20 19 19 18 17 17 16 15 16 18 17 15 12 10 9 12 17 19 22 24 24 24 26 28 29 30 30 31 32 32 33 35 36 35 35 35 34 34 33 29 29 34 35 34 35 35 35 35 35 36 35 32 30 27 24 24 25 26 27 29 31 33 33 34 33 32 33 34 34 34 35 36 38
27 30 31 34 35 35 36 35 32 28 24 21 21 20 19 19 18 17 17 16 16 17 18 17 14 12 11 10 13 16 19 22 23 23 24 26 27 28 29 32 32 32 32 33 34 34 33 33 33 34 34 31 30 34 36 36 36 36 36 35 36 38 39 38 34 30 27 26 27 27 27 29 31 33 34 35 34 33 34 35 35 34 32 33 35
24 27 30 33 34 34 35 33 32 31 27 23 22 21 20 20 19 18 19 19 18 17 18 18 18 15 12 10 9 11 16 20 22 22 24 27 29 29 29 30 31 31 32 31 33 34 32 31 32 33 35 35 32 33 36 37 38 38 38 37 37 39 42 42 38 32 27 26 27 29 30 30 31 32 33 35 34 34 35 37 38 37 35 35 34
22 24 26 28 30 34 36 30 27 30 29 24 23 24 23 22 20 20 22 22 20 20 20 19 19 17 14 12 8 7 11 16 19 21 22 25 30 32 31 28 27 29 31 29 30 33 33 33 34 32 33 35 32 29 33 37 38 38 39 39 40 42 44 45 42 36 29 26 28 31 31 31 30 31 33 34 34 34 35 38 40 40 41 40 33
22 23 24 24 25 30 33 30 27 30 31 26 25 25 26 25 23 23 24 24 22 22 21 21 20 18 15 14 11 9 9 10 14 17 19 20 24 27 27 29 29 29 28 27 28 31 31 32 32 30 31 33 31 28 31 35 36 37 38 39 41 44 45 45 45 41 33 28 30 33 33 31 29 31 33 35 35 35 35 38 41 43 44 42 34
23 23 24 24 24 26 31 34 33 32 31 29 28 28 28 27 26 26 25 24 23 22 21 21 20 17 14 13 12 12 11 11 11 13 16 18 20 20 21 26 29 30 29 28 28 28 27 28 30 32 32 33 31 30 32 36 38 39 39 39 41 44 45 45 44 40 32 27 29 32 34 34 32 30 32 35 36 35 36 39 42 43 44 42 38
23 24 24 24 23 25 30 34 34 31 30 30 30 30 30 28 28 28 26 23 22 22 19 18 19 18 17 14 12 12 12 11 11 12 13 15 17 18 19 21 23 25 27 26 25 26 26 26 28 32 34 34 33 31 34 39 41 41 41 42 41 43 45 45 43 37 29 27 30 29 29 35 36 32 31 34 35 36 38 39 40 42 43 42 38
22 23 23 24 25 26 28 31 32 30 29 29 30 30 31 31 30 30 27 24 23 24 22 19 17 18 19 17 15 13 12 11 12 13 13 13 13 15 17 18 19 21 22 22 23 25 28 28 28 29 32 33 29 27 31 39 44 43 42 42 41 41 43 44 44 39 31 28 30 29 27 32 36 35 33 32 33 36 38 38 38 39 41 39 36
20 22 23 25 25 25 25 28 29 28 27 27 28 29 30 32 31 29 27 25 24 26 25 22 20 20 20 20 18 16 14 14 16 17 17 16 15 15 15 17 18 19 21 22 22 22 25 27 27 26 28 28 25 23 26 34 42 45 44 43 42 41 41 42 44 44 39 34 32 31 30 32 34 36 36 34 33 34 35 35 36 36 36 36 35
21 22 23 24 24 23 23 25 26 26 26 25 26 28 29 30 29 27 26 24 23 25 25 24 23 23 23 23 22 19 17 17 17 17 17 17 17 17 16 16 17 18 19 20 21 21 22 23 24 25 27 26 26 26 27 30 37 42 43 42 41 40 39 40 41 43 43 41 38 36 37 38 37 37 38 37 36 36 35 34 34 33 34 36 37
21 22 22 23 23 22 22 22 23 24 25 25 25 25 27 28 27 25 25 23 23 24 25 25 25 25 25 26 25 22 20 19 18 18 19 18 17 17 16 17 18 19 19 19 19 20 22 23 24 26 26 26 26 27 27 27 31 39 43 43 41 39 38 39 41 42 43 43 42 41 42 44 43 40 37 37 36 36 36 36 35 35 36 38 39
20 20 21 22 21 20 20 19 19 20 22 22 21 21 23 26 26 25 24 23 23 24 25 24 24 24 25 26 26 24 23 23 22 21 21 21 20 20 19 18 19 20 20 20 20 20 21 23 25 26 25 25 25 27 30 30 30 34 39 41 40 40 40 41 43 44 44 42 42 42 42 42 42 41 40 40 40 39 38 39 38 38 38 39 40
19 19 19 20 19 18 18 18 18 18 18 18 18 19 21 24 25 25 23 22 22 23 24 24 23 23 24 26 26 26 25 25 26 26 24 21 21 23 25 25 25 23 23 23 23 23 23 25 27 27 25 25 26 27 31 34 34 34 36 36 35 35 38 41 44 44 43 42 41 41 41 41 41 42 43 45 45 43 42 42 41 42 42 41 40
17 18 19 19 17 16 17 18 18 18 17 17 17 18 20 23 25 25 24 23 21 21 22 23 23 23 24 26 26 25 24 26 28 28 26 25 25 26 28 31 33 32 30 29 29 30 28 26 27 27 27 28 28 27 27 30 32 33 33 32 30 29 28 32 36 38 39 41 42 43 43 43 44 44 45 47 47 46 45 44 43 45 46 44 42
17 19 20 19 16 16 17 17 18 17 17 17 17 18 20 24 24 24 24 23 22 22 22 22 23 23 24 25 25 23 23 26 27 25 24 26 30 32 33 33 35 38 38 37 37 38 37 33 30 29 28 29 29 27 27 29 31 32 31 30 28 25 23 24 27 29 33 37 40 41 41 42 44 45 45 46 47 48 49 47 44 45 47 46 45
Wind_Direction
297 321 334 337 336 330 330 307 272 245 238 240 241 242 237 234 234 220 206 214 224 221 218 216 212 214 215 220 232 240 238 232 226 221 218 219 218 211 210 213 219 224 217 206 207 205 202 208 211 212 214 214 216 216 214 215 217 215 206 204 209 204 200 201 198 193 188 180 185 188 190 195 199 207 214 214 222 225 215 208 210 207 204 214 213
291 299 314 325 331 331 334 330 309 251 232 238 243 240 238 234 226 215 200 203 222 224 222 221 218 219 221 227 234 237 238 239 238 231 223 223 222 214 210 212 216 224 226 222 218 210 203 208 213 214 213 211 215 217 216 215 214 210 204 204 205 203 202 203 200 194 189 186 186 185 192 202 208 212 216 222 230 235 227 218 218 215 208 214 224
295 297 311 319 317 324 332 331 324 273 229 236 242 235 233 229 220 219 212 204 212 218 221 224 225 225 224 227 231 233 236 240 240 232 226 232 234 225 213 215 217 216 221 224 224 217 207 207 212 213 212 209 212 216 217 216 216 210 206 205 201 199 203 206 207 202 192 188 190 191 196 205 219 224 223 226 229 234 233 224 220 220 217 212 216
314 314 321 325 320 322 327 319 308 278 228 228 234 225 223 227 223 221 218 213 213 217 219 220 226 232 229 223 226 231 234 236 234 226 222 231 235 229 221 224 223 213 213 221 228 229 220 211 210 211 212 209 207 212 217 217 218 214 208 208 201 196 199 204 210 206 194 187 191 196 198 204 222 229 223 225 225 226 229 229 223 221 224 220 215
330 328 331 333 334 329 320 309 290 270 236 225 227 221 218 223 225 222 219 218 215 219 223 218 219 229 228 220 218 220 222 225 224 220 222 229 234 233 230 231 231 224 217 218 226 234 232 221 212 212 213 212 207 208 215 217 218 216 211 210 205 198 200 206 211 207 198 194 194 192 193 209 224 214 200 211 222 223 223 226 226 222 222 224 224
342 340 342 340 334 322 308 307 296 270 249 237 231 224 219 220 223 221 219 220 218 219 225 219 216 223 224 218 214 213 216 222 226 229 231 231 232 232 228 229 235 234 222 214 217 226 232 227 217 213 213 213 210 207 213 216 215 215 213 212 209 203 204 210 214 207 201 203 202 199 203 214 215 195 189 196 213 229 228 224 225 223 222 222 224
351 350 354 349 337 325 311 305 296 271 246 242 238 228 220 218 221 218 217 220 222 222 223 219 216 221 225 223 219 222 224 225 231 236 235 232 231 230 228 230 235 234 224 216 216 219 226 226 219 214 212 213 211 207 212 216 215 213 211 211 209 206 205 212 218 213 203 206 209 210 215 218 203 190 198 200 204 219 224 225 225 225 228 227 224
354 353 357 355 346 339 329 317 304 279 246 229 230 232 222 217 220 221 217 216 219 220 218 215 215 219 225 228 228 230 228 227 231 234 230 231 233 232 231 234 236 234 226 218 217 217 220 223 219 214 210 211 211 209 212 216 216 211 210 211 208 208 208 211 219 219 213 212 213 214 219 223 219 211 216 225 226 225 221 219 219 221 228 230 228
352 352 354 354 351 348 343 337 325 297 269 233 221 229 227 218 218 221 222 217 215 216 213 211 214 222 228 230 231 230 225 222 226 225 222 223 225 225 225 229 234 234 227 217 217 217 219 221 219 214 210 209 210 211 213 215 214 209 210 213 209 209 213 211 214 220 220 219 218 220 223 223 224 227 228 231 240 244 231 210 205 218 229 230 228
344 347 349 351 351 349 349 350 340 319 294 264 234 228 229 224 217 218 223 222 216 214 209 207 212 223 231 231 231 227 217 210 212 216 220 218 216 220 225 226 228 232 227 218 217 217 219 221 218 215 213 211 211 211 213 216 215 210 209 213 211 210 214 211 211 220 221 220 224 228 228 222 218 221 227 228 232 244 251 227 206 217 234 234 232
336 338 340 343 347 347 349 351 345 334 315 289 261 238 230 228 222 216 220 224 221 216 210 207 209 216 227 233 230 224 216 212 213 217 219 216 214 219 229 229 224 229 227 220 223 224 220 220 219 218 217 215 214 212 212 215 216 214 213 216 214 211 214 212 212 220 221 220 226 228 226 222 214 213 221 224 226 233 248 250 229 221 232 235 236
328 330 334 337 340 344 344 345 344 340 328 307 283 254 236 232 230 222 218 223 226 222 216 213 213 214 220 226 230 230 227 227 228 224 219 217 221 226 233 231 223 222 225 229 236 232 220 218 217 217 219 219 218 214 212 214 218 220 218 219 220 216 217 217 217 223 224 222 226 226 223 221 215 215 219 219 225 228 236 248 244 229 232 228 222
323 324 328 330 333 337 339 340 341 341 334 320 302 277 247 234 234 230 224 222 226 226 222 220 220 222 224 220 226 240 239 239 239 236 233 233 237 241 239 232 223 221 228 237 240 228 215 217 216 216 220 221 220 217 214 213 218 222 222 222 223 220 219 220 221 226 228 226 227 226 222 217 215 217 219 219 225 227 232 246 248 232 234 229 210
317 320 320 323 326 328 332 335 337 340 336 327 315 296 269 240 233 234 233 228 225 225 224 224 222 225 229 221 219 237 239 238 241 240 241 240 243 247 242 233 233 235 237 241 239 227 217 217 216 217 221 222 221 220 218 217 218 220 221 222 223 223 222 222 223 225 228 228 228 227 221 217 217 218 221 222 222 226 230 238 243 235 234 234 223
314 317 316 318 320 321 324 328 331 335 333 329 324 307 286 262 238 233 235 234 231 226 224 226 223 222 225 219 214 223 228 233 239 241 241 241 244 246 238 234 242 243 241 241 236 233 231 226 221 220 221 222 222 220 218 219 218 219 220 222 223 223 222 223 224 224 226 226 226 226 223 221 220 220 223 223 221 228 233 233 239 241 238 234 230
315 317 316 315 317 317 317 321 325 328 328 327 326 314 295 280 262 243 236 234 236 233 225 226 225 221 223 221 216 216 219 227 237 243 244 242 246 247 237 237 245 244 247 251 242 241 244 237 231 230 227 224 221 220 219 218 218 220 222 224 224 223 223 222 221 223 225 225 224 224 224 225 224 223 225 226 225 228 232 236 237 237 242 244 236
313 314 315 314 314 314 313 316 319 321 322 323 323 317 303 286 277 268 250 237 235 236 231 227 226 224 227 228 226 224 225 230 238 243 244 240 243 246 238 238 242 242 249 254 247 246 246 238 235 238 234 226 221 221 220 218 218 220 221 224 224 223 225 224 220 222 224 223 223 222 223 225 226 226 226 228 231 231 232 237 237 235 242 248 246
313 311 311 312 312 312 312 311 311 314 317 319 320 318 310 295 281 276 270 256 241 236 235 234 230 228 231 232 232 232 233 237 241 242 242 237 236 238 234 233 237 241 245 246 241 238 236 231 232 237 234 226 222 222 220 219 220 220 219 221 224 224 226 227 224 224 223 221 221 221 221 224 226 228 230 230 232 234 234 236 241 245 246 243 245
319 312 309 311 312 312 312 310 308 311 314 315 318 317 314 306 291 279 275 273 259 240 235 237 235 231 232 232 232 234 236 239 242 241 237 233 232 233 230 227 232 239 240 239 239 238 239 240 241 243 239 231 227 225 225 224 224 223 221 219 221 224 226 228 227 225 224 222 221 221 220 223 226 229 232 232 232 234 235 237 243 251 251 245 244
326 319 312 309 313 315 314 312 310 311 312 314 316 315 314 310 301 290 282 280 278 256 238 237 238 235 233 231 232 236 239 240 242 237 231 230 231 232 229 225 227 233 235 238 244 246 246 248 252 260 256 246 242 237 233 232 230 228 225 219 219 222 223 223 224 225 225 222 222 221 221 223 226 230 232 232 234 235 236 238 242 248 249 244 241
330 329 320 310 312 316 316 315 312 312 312 312 313 313 313 311 307 302 294 287 285 278 254 241 240 240 239 235 233 236 239 239 239 236 233 233 231 229 229 227 227 231 236 242 246 243 238 238 248 264 266 261 263 256 242 236 232 231 228 222 218 220 223 221 221 223 221 218 219 221 223 224 224 227 230 231 234 236 237 239 240 244 245 240 238
338 337 332 322 315 314 317 318 314 313 313 311 311 312 311 308 307 307 301 287 275 273 266 250 239 237 242 241 236 236 238 238 237 237 239 240 236 231 230 228 228 232 241 247 247 242 235 237 251 268 267 260 259 259 248 236 232 232 231 225 218 218 220 219 218 219 218 214 215 218 221 224 224 227 229 229 231 232 234 238 239 242 243 239 240
345 342 339 333 325 317 316 316 315 314 313 312 312 312 312 310 307 308 305 292 275 261 258 254 240 233 236 240 239 238 237 237 237 238 241 240 237 236 234 230 230 236 244 246 241 234 229 238 258 280 275 260 252 252 250 239 234 232 230 226 221 217 217 217 217 216 215 214 214 215 217 219 222 225 226 226 226 226 227 231 234 238 241 239 239
350 347 343 338 333 326 318 315 315 313 311 312 314 311 312 312 309 309 306 298 290 275 259 256 247 235 232 234 236 235 232 234 235 236 238 236 234 236 236 233 233 237 241 238 229 228 232 238 252 274 279 269 257 250 245 242 240 234 231 230 223 217 215 215 215 213 213 213 213 215 216 218 221 222 222 223 224 225 226 227 229 231 236 238 236
350 350 345 341 338 332 325 320 318 316 311 309 310 311 313 313 310 308 306 302 297 288 272 262 256 244 232 229 232 233 230 230 231 231 234 234 233 235 237 235 233 234 236 230 224 229 236 236 241 263 276 269 259 252 245 244 247 240 234 232 223 215 213 212 213 213 212 212 212 214 215 217 222 224 224 223 224 229 232 231 232 232 232 235 235
346 347 345 343 338 333 329 325 322 320 313 303 301 304 309 312 311 309 309 307 301 294 283 270 267 259 241 231 230 230 229 228 227 228 231 232 234 238 240 240 236 232 231 225 224 231 236 234 234 246 262 259 249 247 245 245 250 243 234 228 221 214 211 210 212 212 211 212 213 214 215 219 224 226 227 228 226 231 236 235 236 237 235 235 235
342 343 343 341 336 333 330 326 323 320 312 301 297 300 307 312 313 312 311 309 303 298 290 278 275 273 261 244 233 229 229 230 228 227 229 232 235 236 236 238 238 233 228 224 224 230 233 232 231 234 246 249 237 237 242 244 246 241 231 226 222 216 211 209 210 210 209 211 213 214 216 222 227 227 228 232 231 232 236 237 239 241 241 239 237
345 341 339 338 336 333 329 325 323 319 315 310 302 302 308 313 315 314 311 309 306 301 293 281 275 274 272 262 246 233 230 232 232 230 230 232 234 232 231 233 236 234 231 227 226 230 233 231 230 232 239 246 237 231 234 237 240 238 232 228 224 217 212 210 211 210 209 209 212 215 217 222 227 228 228 232 233 233 235 236 236 238 238 239 237
347 342 338 337 336 333 329 327 324 321 318 317 313 310 313 316 316 315 313 312 308 303 295 280 269 270 275 273 257 240 230 229 231 231 231 233 233 228 225 228 235 240 239 232 226 233 237 230 228 231 236 244 242 231 227 234 241 239 233 229 225 216 212 213 213 212 210 209 212 216 219 221 224 228 230 231 233 235 237 237 235 233 233 234 234
346 343 340 338 336 333 332 329 327 325 321 319 317 313 313 316 316 315 316 314 308 304 297 282 268 265 269 269 259 242 231 227 227 224 224 230 231 226 220 222 229 236 240 235 230 236 239 229 226 231 234 240 242 229 222 230 239 237 230 226 222 216 213 212 210 209 208 209 211 214 218 223 226 230 232 234 235 237 239 240 239 239 237 234 231
347 344 342 339 337 336 335 332 332 332 326 324 322 314 311 314 314 313 316 316 312 307 300 284 271 264 258 255 253 245 231 224 224 221 221 227 229 224 218 217 220 225 229 228 228 235 236 228 226 230 230 234 235 226 219 221 226 229 226 223 223 220 214 209 207 210 212 211 211 213 216 225 231 233 235 236 236 234 236 239 240 242 241 237 232
347 347 346 343 342 343 339 337 341 342 335 328 324 317 313 312 310 312 315 318 314 310 304 288 270 264 255 247 248 246 233 222 220 220 221 225 225 221 216 214 215 218 221 222 225 230 230 225 225 228 228 230 231 225 221 217 217 222 222 222 223 221 216 214 213 214 215 213 214 215 215 222 230 234 234 235 235 232 232 236 238 241 243 242 238
347 351 354 351 350 348 343 342 348 352 351 343 331 322 318 313 310 314 320 324 320 311 305 293 271 261 257 248 243 242 236 227 221 220 221 222 221 219 217 214 214 216 218 221 225 227 224 221 224 227 226 229 231 227 221 215 214 218 218 217 220 219 217 217 216 213 211 212 218 221 221 222 227 232 232 232 234 233 231 232 234 237 239 240 241
346 354 359 359 356 351 349 351 351 348 347 344 339 334 329 323 317 316 321 329 332 322 309 298 281 265 259 251 240 236 234 231 224 219 219 220 219 217 216 216 215 217 220 223 226 226 220 217 221 225 224 226 229 227 220 212 210 212 211 210 214 218 219 217 216 212 210 216 223 226 228 229 229 232 232 231 231 233 232 232 232 233 236 237 238
351 354 1 5 3 356 351 353 353 350 345 338 336 338 338 335 328 321 320 324 332 335 325 308 295 276 260 251 243 237 234 231 228 223 219 217 216 216 218 220 220 221 223 225 225 223 219 216 220 223 221 220 222 222 217 211 209 207 207 207 210 215 217 216 216 214 212 219 225 228 231 232 231 233 234 233 231 232 233 233 233 233 235 237 239
2 2 6 11 12 7 2 358 357 358 353 342 340 341 341 341 339 335 331 324 324 330 330 321 313 301 275 253 245 240 235 231 228 225 222 220 219 221 222 224 224 225 224 224 223 222 221 220 221 222 221 218 217 217 213 210 210 208 206 208 211 216 218 215 214 213 213 216 219 223 229 230 229 231 235 235 234 233 233 234 235 235 236 236 239
10 12 12 14 15 15 13 10 6 5 1 353 350 349 345 345 346 344 342 334 327 328 331 330 321 314 302 269 249 240 236 233 230 229 229 225 222 223 222 221 223 224 223 222 221 220 220 220 220 221 223 222 217 213 209 207 207 206 206 207 211 215 218 217 215 214 213 213 214 218 224 227 228 230 234 235 233 230 231 233 234 236 238 238 239
6 9 11 12 13 13 13 11 9 10 10 3 359 356 352 351 350 348 345 339 331 326 329 337 332 320 320 307 274 254 246 240 235 237 244 240 231 227 224 222 222 221 220 220 218 217 218 221 222 222 224 225 221 213 207 204 205 206 206 207 208 212 216 218 218 216 215 215 218 222 225 228 230 232 234 235 232 227 228 231 233 234 237 239 239
357 1 4 8 9 10 10 8 7 8 7 3 1 0 358 355 353 350 346 339 333 326 323 332 338 332 331 334 312 279 265 254 240 240 252 253 247 242 233 224 221 220 218 218 218 217 218 221 223 223 224 227 224 217 211 207 206 207 209 209 209 212 215 216 216 216 216 218 221 225 228 229 232 235 235 235 233 227 226 231 233 231 233 238 239
350 354 356 359 4 6 7 5 3 4 4 2 2 3 1 359 356 352 349 344 337 333 328 327 333 334 333 333 326 300 280 265 250 248 255 256 254 253 246 237 232 224 216 212 213 215 217 219 222 223 225 226 225 222 217 212 209 209 211 210 212 214 215 215 215 214 215 219 222 226 229 230 230 232 234 237 236 230 227 229 232 231 233 236 237
345 349 349 350 354 359 3 2 359 3 5 2 1 3 4 4 1 356 355 351 344 339 335 330 328 329 330 330 324 313 298 276 256 254 256 252 252 252 248 247 248 239 226 217 214 215 218 221 223 223 223 224 223 224 222 217 213 213 213 213 215 216 216 217 217 216 215 218 222 225 229 232 231 231 234 237 239 235 230 229 230 233 235 235 233
343 345 347 349 347 347 355 359 358 0 4 4 3 4 6 7 5 1 359 357 355 351 343 336 333 330 327 327 326 319 312 300 281 267 258 252 252 249 242 242 246 246 238 228 222 222 222 222 221 220 220 222 222 224 225 220 216 216 215 215 217 219 219 219 220 218 217 220 223 224 229 234 235 235 237 239 242 242 237 232 232 233 234 233 232
342 342 343 347 346 342 348 355 355 356 1 4 5 6 7 5 4 2 1 2 8 10 0 346 341 338 333 329 327 324 320 313 302 288 272 260 255 250 243 238 238 242 241 234 230 231 229 226 222 220 221 224 224 225 227 224 221 220 219 219 219 221 222 223 223 221 219 222 226 226 228 232 233 235 237 239 242 243 240 236 234 234 232 231 232
339 341 341 344 344 341 343 351 354 353 357 3 5 6 8 6 1 358 357 359 9 16 12 1 351 346 341 336 329 326 325 317 307 300 294 283 269 255 248 243 235 235 238 236 231 229 228 227 224 220 221 225 226 226 227 228 227 227 226 225 224 223 225 227 228 227 225 225 228 229 227 228 229 231 235 238 239 239 239 236 234 233 233 231 234
334 336 338 341 342 340 339 347 352 353 355 1 3 3 6 7 1 354 352 355 3 11 12 6 359 355 351 342 332 326 322 313 307 306 303 300 294 281 264 253 243 237 237 238 233 228 225 225 224 222 222 223 223 225 227 228 229 229 230 230 230 228 228 231 232 232 231 230 232 235 236 235 233 232 233 236 235 233 233 232 231 233 234 232 233
331 333 335 339 342 340 340 344 351 354 356 1 2 1 3 5 2 356 354 356 1 6 7 3 359 357 356 350 341 333 326 320 318 315 309 303 299 292 278 264 255 245 239 239 237 233 229 227 226 226 225 224 225 226 228 230 232 232 232 233 234 234 233 235 238 239 238 237 237 239 242 244 242 236 232 232 233 232 230 228 227 228 230 230 230
333 334 337 340 342 342 342 344 349 354 357 359 0 360 0 2 1 358 357 359 2 4 3 360 357 355 354 351 349 344 337 332 330 325 318 309 302 294 281 269 261 254 246 242 238 233 230 229 230 230 227 226 226 227 227 229 233 235 235 235 237 239 238 238 241 243 242 242 242 241 242 244 245 244 241 240 242 242 239 234 230 227 226 227 228
335 336 338 341 342 343 345 346 347 351 353 354 355 355 357 359 359 357 356 358 2 5 3 359 356 354 350 347 347 347 344 338 334 330 323 315 307 299 287 274 264 257 253 249 243 239 235 230 228 229 229 228 227 227 229 230 231 237 240 240 240 243 243 243 243 243 243 245 245 245 244 243 244 247 249 249 249 249 246 241 237 233 230 229 229
336 336 339 342 343 345 348 348 347 348 348 349 350 351 353 357 357 355 353 353 356 359 359 358 356 352 347 344 343 345 346 341 336 331 324 314 305 298 292 283 270 259 253 250 246 243 241 238 235 231 228 228 229 232 237 238 238 242 250 253 252 252 250 249 248 247 247 248 249 248 246 243 242 243 246 248 247 247 246 244 241 238 235 233 232
336 336 338 343 347 348 349 350 349 348 348 348 349 350 353 356 357 356 355 353 353 352 352 354 354 351 347 343 341 342 344 343 340 334 326 315 306 298 293 287 277 266 256 250 247 245 241 240 240 238 235 236 236 235 240 244 247 250 258 265 267 264 260 256 253 248 245 245 247 248 247 245 243 242 244 247 247 247 246 245 243 241 238 237 237
337 337 340 346 350 350 350 350 350 350 350 350 350 350 353 356 358 359 359 359 358 355 351 349 350 349 346 344 342 342 342 344 344 338 329 322 315 306 297 287 278 272 264 255 250 248 246 242 238 237 240 243 245 244 244 248 254 260 264 268 270 267 259 252 247 242 237 237 239 241 243 243 244 244 245 246 248 249 249 247 245 244 244 242 241